Tracking 28348 objects as of 8-Dec-2023
HD Live streaming from Space Station
objects crossing your sky now

STARLINK-30853

Track STARLINK-30853 now!
10-day predictions
STARLINK-30853 is classified as:


NORAD ID: 58236
Int'l Code: 2023-171G
Perigee: 524.2 km
Apogee: 526.2 km
Inclination: 43.0 °
Period: 95.0 minutes
Semi major axis: 6896 km
RCS: Unknown
Launch date: November 8, 2023
Source: United States (US)
Launch site: AIR FORCE EASTERN TEST RANGE (AFETR)
Your satellite tracking list
Your tracking list is empty




NASA's NSSDC Master Catalog

Two Line Element Set (TLE):
1 58236U 23171G   23341.91667824  .00002540  00000-0  14185-3 0  9997
2 58236  43.0003  84.1060 0001434 239.3033  59.9062 15.15959595  5897
Source of the keplerian elements: AFSPC